Showing default

LEMUR 2 TOMATOKECHUP, 60471

Orbit data source: Space-Track

LEMUR 2 TOMATOKECHUP, 60471 is an American payload satellite in SSO that was launched on Fri, 16 Aug 2024 UTC via an FALCON 9 launch vehicle from the Air Force Western Test Range (AFWTR). Payload-class satellites include a variety of spacecraft equipped with specific instruments for various scientific and technological missions. These include communications satellites like Starlink; space stations such as the ISS; scientific satellites like the Hubble; Earth observation satellites from companies like Planet Labs, Umbra, and HawkEye 360; GPS; miniature CubeSats for education and research; and military/defense satellites.

Loading next visibility...
Identifier
60471, 2024-149D
Orbit
SSO
Country
Flag of USUS
Related business
Manufacturer
Spire/Glasgow
Mission
Operational Commercial Communications
Bus & Motor
CUBESAT 16U, Unknown motor
Mass
22 kg wet, 22 kg dry
Launch date (UTC)
2024-08-16 (2 years ago)
Launch vehicle
FALCON 9
Launch site
Air Force Western Test Range (AFWTR)
Object type
Payload
Rocket body
Debris
Shape & HBR
Box + 4 Pan, 1.4 m
Radar Cross Section
0.326 m², Medium (>0.1 m² and < 1m²)

Expand to show TLE details & history
Last TLE update: 18 hours ago

TLE from 18 hours ago
0 LEMUR 2 TOMATOKECHUP
1 60471U 24149D   26171.23424260  .00009043  00000-0  25956-3 0  9994
2 60471  97.3792 253.2890 0001698 170.5743 189.5533 15.36085472102634
Epoch: 2026-06-20T05:37Z
TLE epoch observation values (Epoch: 2026-06-20T05:37:18.560Z)
Latitude
-0.00004°
Longitude
-99.49012°
Altitude
461.956 km
Speed
7.635 km/s
True Right ascension
16h 53m 09s
True Declination
0° 00' 00"
Sunlit
Object was in full shadow at epoch
Visualization orbit readout
Latitude
Unknown
Longitude
Unknown
Altitude
Unknown
Speed
Unknown
Apparent Right ascension
Unknown
Apparent Declination
Unknown
Sunlit
N/A
Visualization observer readout
Local Sidereal Time
10:18:57
Azimuth
Unknown
Elevation
Unknown
Doppler factor
Unknown
Orbital elements
Apogee altitude
455.802 km
Perigee altitude
453.481 km
Semi-major axis
6,832.779 km
Eccentricity
0.00017
Inclination
97.3792°
RAAN
253.289°
Arg. of periapsis
170.5743°
True anomaly
189.55007°
Mean anomaly
189.5533°
Eccentric anomaly
189.55169°
Mean motion
3.84279 °/min
Orbital period
93.68 mins
BSTAR
0.00025956
Loading maneuver chart data...
Computing Atmospheric mass density...
Loading historical data...
Loading historical data...
Loading historical data...
Loading historical data...
Loading historical data...
Loading historical data...
Loading historical data...

Documentation

Showing up to 5 results
|